Previsão horária em Al Hufuf

Hoje, 24 Novembro, Terça-feira

Tempo Temperatura Precipitação Vento Pressão Humidade
00:00 +17°C° 0 mm 3 m/s 750 mmHg 48%
01:00 +17°C° 0 mm 4 m/s 750 mmHg 49%
02:00 +15°C° 0 mm 4 m/s 750 mmHg 50%
03:00 +15°C° 0 mm 5 m/s 749 mmHg 52%
04:00 +15°C° 0 mm 5 m/s 750 mmHg 52%
05:00 +14°C° 0 mm 4 m/s 750 mmHg 53%
06:00 +14°C° 0 mm 4 m/s 751 mmHg 53%
07:00 +16°C° 0 mm 5 m/s 751 mmHg 47%
08:00 +19°C° 0 mm 6 m/s 751 mmHg 40%
09:00 +21°C° 0 mm 7 m/s 751 mmHg 34%
10:00 +22°C° 0 mm 7 m/s 751 mmHg 29%
11:00 +23°C° 0 mm 7 m/s 750 mmHg 24%
12:00 +26°C° 0 mm 7 m/s 750 mmHg 19%
13:00 +26°C° 0 mm 7 m/s 749 mmHg 18%
14:00 +26°C° 0 mm 6 m/s 749 mmHg 17%
15:00 +26°C° 0 mm 6 m/s 748 mmHg 16%
16:00 +23°C° 0 mm 5 m/s 748 mmHg 19%
17:00 +20°C° 0 mm 4 m/s 749 mmHg 21%
18:00 +18°C° 0 mm 3 m/s 749 mmHg 23%
19:00 +18°C° 0 mm 3 m/s 749 mmHg 25%
20:00 +17°C° 0 mm 3 m/s 749 mmHg 27%
21:00 +16°C° 0 mm 3 m/s 749 mmHg 29%
22:00 +14°C° 0 mm 3 m/s 749 mmHg 32%
23:00 +14°C° 0 mm 3 m/s 749 mmHg 35%

Amanhã, 25 Novembro, Quarta-feira

Tempo Temperatura Precipitação Vento Pressão Humidade
00:00 +14°C° 0 mm 2 m/s 750 mmHg 37%
01:00 +13°C° 0 mm 3 m/s 749 mmHg 39%
02:00 +13°C° 0 mm 3 m/s 749 mmHg 41%
03:00 +13°C° 0 mm 3 m/s 749 mmHg 43%
04:00 +13°C° 0 mm 3 m/s 749 mmHg 42%
05:00 +13°C° 0 mm 3 m/s 749 mmHg 41%
06:00 +13°C° 0 mm 3 m/s 750 mmHg 39%
07:00 +16°C° 0 mm 3 m/s 750 mmHg 34%
08:00 +18°C° 0 mm 3 m/s 751 mmHg 29%
09:00 +20°C° 0 mm 2 m/s 751 mmHg 24%
10:00 +23°C° 0 mm 2 m/s 750 mmHg 25%
11:00 +24°C° 0 mm 1 m/s 750 mmHg 26%
12:00 +25°C° 0 mm 1 m/s 750 mmHg 27%
13:00 +26°C° 0 mm 1 m/s 749 mmHg 26%
14:00 +26°C° 0 mm 2 m/s 749 mmHg 24%
15:00 +27°C° 0 mm 2 m/s 748 mmHg 23%
16:00 +25°C° 0 mm 2 m/s 749 mmHg 32%
17:00 +21°C° 0 mm 3 m/s 749 mmHg 42%
18:00 +19°C° 0 mm 3 m/s 749 mmHg 51%
19:00 +18°C° 0 mm 3 m/s 749 mmHg 57%
20:00 +18°C° 0 mm 3 m/s 749 mmHg 63%
21:00 +17°C° 0 mm 2 m/s 749 mmHg 69%
22:00 +17°C° 0 mm 2 m/s 749 mmHg 72%
23:00 +16°C° 0 mm 2 m/s 749 mmHg 75%

Depois de amanhã, 26 Novembro, Quinta-feira

Tempo Temperatura Precipitação Vento Pressão Humidade
00:00 +16°C° 0 mm 2 m/s 749 mmHg 78%
01:00 +16°C° 0 mm 2 m/s 748 mmHg 79%
02:00 +16°C° 0 mm 2 m/s 748 mmHg 80%
03:00 +16°C° 0 mm 2 m/s 748 mmHg 82%
04:00 +16°C° 0 mm 2 m/s 748 mmHg 82%
05:00 +16°C° 0 mm 2 m/s 749 mmHg 83%
06:00 +16°C° 0 mm 2 m/s 749 mmHg 84%
07:00 +18°C° 0 mm 2 m/s 749 mmHg 75%
08:00 +21°C° 0 mm 3 m/s 750 mmHg 66%
09:00 +23°C° 0 mm 4 m/s 750 mmHg 57%
10:00 +26°C° 0 mm 4 m/s 750 mmHg 50%
11:00 +27°C° 0 mm 5 m/s 749 mmHg 42%
12:00 +29°C° 0 mm 6 m/s 749 mmHg 34%
13:00 +29°C° 0 mm 5 m/s 748 mmHg 31%
14:00 +30°C° 0 mm 5 m/s 748 mmHg 28%
15:00 +30°C° 0 mm 4 m/s 747 mmHg 24%
16:00 +28°C° 0 mm 4 m/s 747 mmHg 28%
17:00 +26°C° 0 mm 3 m/s 748 mmHg 33%
18:00 +22°C° 0 mm 3 m/s 748 mmHg 37%
19:00 +22°C° 0 mm 3 m/s 748 mmHg 38%
20:00 +22°C° 0 mm 3 m/s 748 mmHg 39%
21:00 +22°C° 0 mm 4 m/s 748 mmHg 40%
22:00 +21°C° 0 mm 4 m/s 748 mmHg 43%
23:00 +21°C° 0 mm 4 m/s 748 mmHg 46%

27 Novembro, Sexta-feira

Tempo Temperatura Precipitação Vento Pressão Humidade
00:00 +20°C° 0 mm 4 m/s 748 mmHg 49%
01:00 +20°C° 0 mm 3 m/s 748 mmHg 50%
02:00 +20°C° 0 mm 3 m/s 748 mmHg 52%
03:00 +20°C° 0 mm 3 m/s 748 mmHg 53%
04:00 +20°C° 0 mm 3 m/s 749 mmHg 54%
05:00 +20°C° 0 mm 3 m/s 749 mmHg 55%
06:00 +20°C° 0 mm 3 m/s 750 mmHg 56%
07:00 +22°C° 0 mm 4 m/s 750 mmHg 51%
08:00 +23°C° 0 mm 4 m/s 751 mmHg 46%
09:00 +26°C° 0 mm 5 m/s 751 mmHg 41%
10:00 +27°C° 0 mm 5 m/s 751 mmHg 39%
11:00 +27°C° 0 mm 5 m/s 750 mmHg 36%
12:00 +28°C° 0 mm 4 m/s 750 mmHg 34%
13:00 +28°C° 0 mm 5 m/s 750 mmHg 36%
14:00 +28°C° 0 mm 5 m/s 749 mmHg 38%
15:00 +29°C° 0 mm 5 m/s 749 mmHg 40%
16:00 +28°C° 0 mm 4 m/s 749 mmHg 42%
17:00 +27°C° 0 mm 3 m/s 750 mmHg 44%
18:00 +26°C° 0 mm 2 m/s 751 mmHg 47%
19:00 +25°C° 0 mm 2 m/s 751 mmHg 54%
20:00 +23°C° 0 mm 2 m/s 751 mmHg 60%
21:00 +21°C° 0 mm 3 m/s 751 mmHg 67%
22:00 +21°C° 0 mm 3 m/s 751 mmHg 67%
23:00 +21°C° 0 mm 3 m/s 751 mmHg 66%

28 Novembro, Sábado

Tempo Temperatura Precipitação Vento Pressão Humidade
00:00 +21°C° 0 mm 2 m/s 750 mmHg 66%
01:00 +22°C° 0 mm 3 m/s 750 mmHg 66%
02:00 +22°C° 0 mm 3 m/s 750 mmHg 67%
03:00 +22°C° 0 mm 3 m/s 750 mmHg 68%
04:00 +22°C° 0 mm 3 m/s 750 mmHg 70%
05:00 +21°C° 0 mm 2 m/s 750 mmHg 73%
06:00 +21°C° 0 mm 2 m/s 750 mmHg 75%
07:00 +24°C° 0 mm 3 m/s 750 mmHg 68%
08:00 +25°C° 0 mm 3 m/s 751 mmHg 61%
09:00 +27°C° 0 mm 4 m/s 751 mmHg 54%
10:00 +28°C° 0 mm 4 m/s 751 mmHg 47%
11:00 +29°C° 0 mm 5 m/s 750 mmHg 41%
12:00 +30°C° 0 mm 5 m/s 750 mmHg 35%
13:00 +30°C° 0 mm 5 m/s 749 mmHg 33%
14:00 +32°C° 0 mm 5 m/s 749 mmHg 31%
15:00 +32°C° 0 mm 5 m/s 748 mmHg 30%
16:00 +29°C° 0 mm 4 m/s 748 mmHg 34%
17:00 +27°C° 0 mm 4 m/s 748 mmHg 38%
18:00 +26°C° 0 mm 3 m/s 748 mmHg 43%
19:00 +25°C° 0 mm 3 m/s 749 mmHg 48%
20:00 +24°C° 0 mm 3 m/s 749 mmHg 53%
21:00 +22°C° 0 mm 4 m/s 749 mmHg 59%
22:00 +22°C° 0 mm 4 m/s 749 mmHg 63%
23:00 +22°C° 0 mm 4 m/s 749 mmHg 67%

29 Novembro, Domingo

Tempo Temperatura Precipitação Vento Pressão Humidade
00:00 +22°C° 0 mm 4 m/s 748 mmHg 70%
01:00 +22°C° 0 mm 4 m/s 748 mmHg 70%
02:00 +22°C° 0 mm 4 m/s 748 mmHg 69%
03:00 +22°C° 0 mm 4 m/s 748 mmHg 68%
04:00 +22°C° 0 mm 4 m/s 748 mmHg 67%
05:00 +22°C° 0 mm 4 m/s 748 mmHg 66%
06:00 +22°C° 0 mm 4 m/s 748 mmHg 65%
07:00 +23°C° 0 mm 4 m/s 748 mmHg 58%
08:00 +25°C° 0 mm 4 m/s 748 mmHg 51%
09:00 +26°C° 0 mm 4 m/s 749 mmHg 44%
10:00 +27°C° 0 mm 5 m/s 748 mmHg 37%
11:00 +29°C° 0 mm 6 m/s 748 mmHg 29%
12:00 +32°C° 0 mm 7 m/s 748 mmHg 22%
13:00 +32°C° 0 mm 6 m/s 747 mmHg 22%
14:00 +32°C° 0 mm 6 m/s 747 mmHg 22%
15:00 +32°C° 0 mm 6 m/s 747 mmHg 23%
16:00 +29°C° 0 mm 5 m/s 747 mmHg 26%
17:00 +28°C° 0 mm 4 m/s 747 mmHg 29%
18:00 +26°C° 0 mm 4 m/s 747 mmHg 33%
19:00 +25°C° 0 mm 3 m/s 747 mmHg 35%
20:00 +25°C° 0 mm 3 m/s 748 mmHg 37%
21:00 +24°C° 0 mm 2 m/s 748 mmHg 39%
22:00 +24°C° 0 mm 3 m/s 748 mmHg 44%
23:00 +22°C° 0 mm 4 m/s 748 mmHg 49%
Mostrar mais